Starlink 1338

operational
NORAD ID: 45532 Int'l Des: 2020-025 Owner: SPXS Country: US Constellation: starlink
LEOCIRCULARSTARLINK_TYPE

Starlink 1338について

説明を読み込み中...

リアルタイム位置

3D地球を読み込み中...

次回通過

高度履歴

Altitude vs Time

uPlot chart will show altitude changes over time

軌道要素

1 45532U 20025B 26033.97741088 .00110317 00000-0 20878-2 0 9996
2 45532 53.0512 251.6184 0005207 140.9219 219.2165 15.47538939320010
Epoch: Feb 2, 2026 • Age: 15 hours

現在のステータス

高度 430.6 km
速度 7.65 km/s
衛星直下点 -13.99°S, 119.22°W
打ち上げ日 Apr 22, 2020
運用期間 5.7 years
タイプ internet

技術仕様

分類 Payload
質量 260.00 kg
乾燥質量 248.00 kg
総質量 260.00 kg
長さ 0.20 m
直径 2.80 m
スパン 9.00 m
形状 Box + pan
製造者 SPXS
バスタイプ Starlink
フェーズステータス In Orbit
所有者/国 SPXS/US

大規模コンステレーション

Loading constellations...